PBO Station Position Time Series. Reference Frame : NAM14
Format Version,1.1.1
4-character ID,P566
Station name,Visalia_MYCS2005
Begin Date, 2005-11-16
End Date, 2023-06-26
Release Date, 2023-06-27
Reference position, 36.3244546368 North Latitude, -119.2292875535 East Longitude, 78.15511 meters elevation,
Date, North (mm), East (mm), Vertical (mm), North Std. Deviation (mm), East Std. Deviation (mm),              Vertical Std. Deviation (mm), Quality,
2005-11-16,0.00, 0.00, 0.00, 2.11, 1.71, 7.70, repro,
2005-11-17,0.23, -1.80, 0.48, 2.02, 1.61, 7.36, repro,
2005-11-18,-0.02, -0.58, 5.44, 2.00, 1.62, 7.35, repro,
2005-11-19,0.30, -0.77, 4.72, 2.02, 1.62, 7.37, repro,
2005-11-20,-0.25, -1.02, -3.13, 2.04, 1.65, 7.46, repro,
2005-11-21,-0.10, -1.82, 6.91, 2.14, 1.69, 7.86, repro,
2005-11-22,-0.27, -1.32, 4.38, 2.10, 1.73, 7.77, repro,
2005-11-23,0.01, -1.13, 8.63, 2.04, 1.65, 7.45, repro,
2005-11-24,-1.07, -0.68, 6.46, 2.01, 1.63, 7.42, repro,
2005-11-25,-0.08, -1.52, 7.88, 2.05, 1.67, 7.55, repro,
2005-11-26,0.68, -2.39, 6.56, 2.15, 1.75, 7.90, repro,
2005-11-27,-0.36, -0.76, 8.80, 2.07, 1.67, 7.59, repro,
2005-11-28,0.34, -0.31, 2.06, 2.11, 1.73, 7.80, repro,
2005-11-29,-0.26, -1.13, 7.39, 2.06, 1.67, 7.53, repro,
2005-11-30,0.42, -0.69, 5.22, 2.06, 1.70, 7.61, repro,
2005-12-01,-0.50, -0.90, 3.52, 2.04, 1.64, 7.42, repro,
2005-12-02,-1.13, -1.38, 1.94, 2.05, 1.65, 7.45, repro,
2005-12-03,-0.02, -1.17, 2.65, 2.05, 1.64, 7.42, repro,
2005-12-04,0.41, -0.09, -0.07, 2.04, 1.65, 7.41, repro,
2005-12-05,-0.22, -0.61, -1.63, 2.04, 1.66, 7.44, repro,
2005-12-06,-0.54, -0.91, -2.03, 2.08, 1.63, 7.47, repro,
2005-12-07,-0.38, -0.94, -0.74, 2.06, 1.68, 7.54, repro,
2005-12-08,-0.72, -1.19, 4.57, 2.08, 1.69, 7.63, repro,
2005-12-09,1.66, -0.40, -0.55, 2.07, 1.65, 7.52, repro,
2005-12-10,-0.93, -0.93, 1.44, 2.04, 1.65, 7.44, repro,
2005-12-11,-0.41, -1.33, 6.56, 2.01, 1.61, 7.31, repro,
2005-12-12,0.24, -0.69, -1.51, 2.01, 1.61, 7.32, repro,
2005-12-13,-0.76, -0.69, 9.03, 2.02, 1.61, 7.35, repro,
2005-12-14,0.76, -0.77, -0.14, 2.04, 1.64, 7.42, repro,
2005-12-15,0.07, -1.71, -0.00, 2.10, 1.68, 7.65, repro,
2005-12-16,-0.43, -1.97, 5.67, 2.02, 1.61, 7.37, repro,
2005-12-17,-0.13, -1.94, 6.81, 2.10, 1.73, 7.67, repro,
2005-12-18,0.21, -1.92, 9.99, 2.04, 1.75, 7.46, repro,
2005-12-19,0.01, -0.47, 0.87, 2.21, 1.81, 7.93, repro,
2005-12-20,1.14, 0.52, -3.60, 2.08, 1.74, 7.58, repro,
2005-12-21,0.44, -0.55, 3.67, 2.07, 1.76, 7.58, repro,
2005-12-22,0.83, -1.23, 6.82, 2.09, 1.81, 7.65, repro,
2005-12-23,0.47, -1.70, 3.47, 2.11, 1.75, 7.61, repro,
2005-12-24,-0.14, -1.46, 5.03, 2.24, 1.87, 8.12, repro,
2005-12-25,-0.34, -0.63, 6.08, 2.08, 1.71, 7.53, repro,
2005-12-26,0.09, -0.86, 13.34, 2.25, 1.85, 8.05, repro,
2005-12-27,0.64, -1.30, 5.69, 2.19, 1.80, 8.04, repro,
2005-12-28,-1.85, -1.42, -2.54, 2.06, 1.67, 7.42, repro,
2005-12-29,0.29, -0.86, 3.62, 2.21, 1.83, 8.15, repro,
2005-12-30,-1.10, -0.27, 11.65, 2.24, 1.84, 8.15, repro,
2005-12-31,0.30, -1.24, 12.54, 2.18, 1.78, 7.93, repro,
2006-01-01,1.18, -1.34, 6.69, 2.19, 1.80, 8.02, repro,
2006-01-02,-0.57, -1.05, 9.46, 2.11, 1.68, 7.51, repro,
2006-01-03,0.74, -1.03, 6.33, 2.32, 2.02, 8.48, repro,
2006-01-04,0.64, -0.25, 1.48, 2.26, 1.96, 8.32, repro,
2006-01-05,1.64, 0.19, -2.31, 2.13, 1.78, 7.71, repro,
2006-01-06,1.86, -0.92, 1.42, 2.26, 1.85, 8.17, repro,
2006-01-07,1.18, -0.86, 9.52, 2.09, 1.72, 7.55, repro,
2006-01-08,1.38, -0.57, -1.81, 2.12, 1.77, 7.64, repro,
2006-01-09,0.32, -0.66, 5.99, 2.17, 1.81, 7.97, repro,
2006-01-10,0.96, 0.01, 2.39, 2.18, 1.82, 7.92, repro,
2006-01-11,1.72, -0.61, 5.88, 2.19, 1.81, 7.92, repro,
2006-01-12,1.39, -1.48, 7.29, 2.15, 1.79, 7.72, repro,
2006-01-13,0.83, 0.04, 5.35, 2.28, 1.92, 8.40, repro,
2006-01-14,1.36, -1.03, 4.14, 2.12, 1.68, 7.65, repro,
2006-01-15,0.44, -0.54, 8.75, 2.04, 1.64, 7.34, repro,
2006-01-16,1.48, -1.53, 2.50, 2.17, 1.82, 7.73, repro,
2006-01-17,1.69, -0.95, 1.21, 2.15, 1.77, 7.71, repro,
2006-01-18,2.90, -0.84, 2.77, 2.07, 1.66, 7.49, repro,
2006-01-19,0.30, -0.00, 6.89, 2.11, 1.65, 7.66, repro,
2006-01-20,-0.03, -0.75, -5.05, 2.07, 1.64, 7.53, repro,
2006-01-21,1.71, -0.06, -0.41, 2.06, 1.65, 7.38, repro,
2006-01-22,0.99, -0.61, -1.29, 2.05, 1.61, 7.28, repro,
2006-01-23,1.42, -0.97, 1.69, 2.11, 1.67, 7.50, repro,
2006-01-24,0.95, -0.06, -2.61, 2.09, 1.64, 7.53, repro,
2006-01-25,0.49, 0.15, -1.39, 1.96, 1.57, 7.13, repro,
2006-01-26,0.53, -1.19, -4.45, 1.98, 1.58, 7.18, repro,
2006-01-27,1.09, -1.23, -0.05, 1.99, 1.58, 7.17, repro,
2006-01-28,0.49, -0.79, -3.92, 1.98, 1.57, 7.17, repro,
2006-01-29,0.86, 0.73, -4.69, 1.99, 1.58, 7.22, repro,
2006-01-30,0.34, 0.22, -4.46, 2.01, 1.59, 7.35, repro,
2006-01-31,0.67, -0.38, 0.41, 2.00, 1.59, 7.31, repro,
2006-02-01,0.74, -1.33, -1.25, 2.02, 1.59, 7.33, repro,
2006-02-02,1.51, -0.12, 2.42, 2.00, 1.58, 7.30, repro,
2006-02-03,0.98, -0.87, 2.22, 2.06, 1.64, 7.46, repro,
2006-02-04,0.83, -1.48, 3.13, 2.04, 1.62, 7.43, repro,
2006-02-05,-0.21, -0.86, -1.67, 2.00, 1.57, 7.32, repro,
2006-02-06,0.27, -0.39, -5.43, 2.05, 1.64, 7.49, repro,
2006-02-07,2.09, 0.07, -6.09, 2.05, 1.64, 7.50, repro,
2006-02-08,1.73, -0.60, -7.95, 1.98, 1.56, 7.21, repro,
2006-02-09,1.01, -0.65, -4.59, 2.07, 1.58, 7.50, repro,
2006-02-10,0.55, -0.27, -6.67, 2.14, 1.59, 7.58, repro,
2006-02-11,0.04, 0.41, -10.17, 2.02, 1.58, 7.36, repro,
2006-02-12,1.35, 0.05, -8.69, 2.02, 1.58, 7.37, repro,
2006-02-13,1.16, -0.42, -3.52, 2.07, 1.62, 7.53, repro,
2006-02-14,0.38, -0.44, 2.75, 2.00, 1.57, 7.38, repro,
2006-02-15,-0.20, -0.98, 3.11, 1.98, 1.55, 7.24, repro,
2006-02-16,0.65, -0.91, -2.44, 2.00, 1.55, 7.25, repro,
2006-02-17,0.87, -0.79, -0.06, 2.02, 1.58, 7.36, repro,
2006-02-18,0.77, -0.70, -3.08, 2.01, 1.59, 7.35, repro,
2006-02-19,0.25, -0.17, -3.23, 2.02, 1.58, 7.36, repro,
2006-02-20,0.88, -0.06, 1.10, 1.99, 1.56, 7.25, repro,
2006-02-21,0.85, -0.89, 1.15, 1.99, 1.56, 7.24, repro,
2006-02-22,1.44, 0.48, 4.89, 2.01, 1.57, 7.30, repro,
2006-02-23,1.07, 0.20, -1.08, 2.04, 1.62, 7.46, repro,
2006-02-24,0.66, -0.32, -1.01, 2.01, 1.59, 7.35, repro,
2006-02-25,0.77, 0.24, -1.38, 2.01, 1.58, 7.30, repro,
2006-02-26,-0.79, -0.28, -0.58, 2.00, 1.59, 7.39, repro,
2006-02-27,0.33, -0.67, -0.02, 2.01, 1.61, 7.39, repro,
2006-02-28,0.84, 1.31, 0.16, 2.04, 1.62, 7.45, repro,
2006-03-01,0.98, 0.04, -1.65, 2.11, 1.70, 7.67, repro,
2006-03-02,0.46, -0.32, -0.96, 2.00, 1.60, 7.33, repro,
2006-03-03,0.68, -0.25, 3.26, 2.08, 1.61, 7.62, repro,
2006-03-04,0.77, -0.68, -4.45, 1.98, 1.60, 7.26, repro,
2006-03-05,1.35, 0.01, 2.02, 1.99, 1.59, 7.30, repro,
2006-03-06,1.84, 0.89, -6.53, 1.98, 1.60, 7.30, repro,
2006-03-07,2.23, -0.34, 4.60, 1.99, 1.59, 7.32, repro,
2006-03-08,0.77, 0.66, 5.91, 1.98, 1.59, 7.27, repro,
2006-03-09,1.09, -1.02, 8.66, 1.98, 1.59, 7.27, repro,
2006-03-10,0.14, -1.10, 8.77, 1.99, 1.59, 7.32, repro,
2006-03-11,1.27, -0.20, 8.82, 2.02, 1.61, 7.40, repro,
2006-03-12,1.33, -0.52, -0.22, 2.01, 1.60, 7.34, repro,
2006-03-13,1.04, -0.05, -0.36, 2.01, 1.60, 7.29, repro,
2006-03-14,0.30, -0.02, 5.11, 2.03, 1.62, 7.42, repro,
2006-03-15,0.66, 0.16, -2.47, 2.02, 1.62, 7.46, repro,
2006-03-16,0.16, -0.27, -9.84, 2.08, 1.65, 7.54, repro,
2006-03-17,1.79, -0.68, 1.75, 2.07, 1.66, 7.54, repro,
2006-03-18,1.62, -1.10, -4.83, 2.01, 1.62, 7.32, repro,
2006-03-19,-0.03, -0.25, 1.50, 1.99, 1.62, 7.28, repro,
2006-03-20,0.53, -1.01, -1.58, 2.00, 1.64, 7.35, repro,
2006-03-21,1.29, 0.26, -0.48, 2.01, 1.64, 7.44, repro,
2006-03-22,1.35, -0.32, -5.06, 2.02, 1.65, 7.44, repro,
2006-03-23,0.75, -0.37, -6.27, 2.07, 1.65, 7.56, repro,
2006-03-24,1.53, 0.16, -4.63, 2.07, 1.65, 7.57, repro,
2006-03-25,2.08, 0.31, 10.34, 2.08, 1.68, 7.66, repro,
2006-03-26,0.86, -0.10, -0.38, 2.06, 1.66, 7.56, repro,
2006-03-27,0.22, -1.29, 4.55, 2.08, 1.68, 7.67, repro,
2006-03-28,2.38, -0.27, 8.72, 2.00, 1.65, 7.45, repro,
2006-03-29,1.62, -1.65, 3.17, 1.94, 1.61, 7.26, repro,
2006-03-30,0.26, -0.62, 4.27, 1.93, 1.59, 7.18, repro,
2006-03-31,1.35, -1.18, 0.99, 1.96, 1.61, 7.29, repro,
2006-04-01,1.70, -1.19, 5.81, 1.96, 1.61, 7.33, repro,
2006-04-02,1.48, 0.08, 0.89, 1.97, 1.61, 7.32, repro,
2006-04-03,0.66, -0.48, 0.35, 1.95, 1.61, 7.27, repro,
2006-04-04,1.59, -1.33, 3.48, 1.96, 1.61, 7.37, repro,
2006-04-05,0.78, -0.62, 7.49, 1.98, 1.65, 7.54, repro,
2006-04-06,2.31, -1.65, 0.12, 1.98, 1.65, 7.47, repro,
2006-04-07,1.05, -0.46, -3.19, 2.05, 1.66, 7.58, repro,
2006-04-08,1.88, -0.81, 1.80, 2.09, 1.64, 7.70, repro,
2006-04-09,2.33, -0.71, -4.28, 1.95, 1.61, 7.34, repro,
2006-04-10,1.93, -1.33, 4.41, 1.94, 1.60, 7.28, repro,
2006-04-11,1.89, -1.00, 10.51, 2.02, 1.64, 7.66, repro,
2006-04-12,2.02, 0.06, 3.59, 2.02, 1.64, 7.62, repro,
2006-04-13,1.94, -0.40, 1.51, 1.96, 1.61, 7.34, repro,
2006-04-14,1.29, -0.15, 0.07, 1.95, 1.61, 7.31, repro,
2006-04-15,1.14, 0.07, 3.38, 2.00, 1.62, 7.41, repro,
2006-04-16,1.69, -0.27, 4.46, 1.95, 1.60, 7.33, repro,
2006-04-17,1.52, -0.58, 4.07, 1.95, 1.61, 7.35, repro,
2006-04-18,2.55, -1.27, -1.45, 1.97, 1.65, 7.50, repro,
2006-04-19,2.47, -0.20, -3.17, 1.96, 1.62, 7.35, repro,
2006-04-20,1.60, -0.50, -2.28, 1.97, 1.64, 7.45, repro,
2006-04-21,1.27, -0.87, 2.83, 1.95, 1.60, 7.31, repro,
2006-04-22,1.69, -0.60, 6.87, 1.98, 1.65, 7.48, repro,
2006-04-23,2.05, -1.26, 0.02, 1.99, 1.66, 7.52, repro,
2006-04-24,1.85, -0.65, -4.30, 1.98, 1.65, 7.47, repro,
2006-04-25,1.45, -0.89, -0.75, 1.98, 1.66, 7.48, repro,
2006-04-26,1.09, -0.76, -3.06, 2.00, 1.66, 7.56, repro,
2006-04-27,0.83, -0.99, 2.44, 2.05, 1.66, 7.56, repro,
2006-04-28,1.44, -1.13, -3.89, 2.02, 1.61, 7.42, repro,
2006-04-29,2.03, -0.27, -0.45, 1.95, 1.61, 7.36, repro,
2006-04-30,2.38, 0.16, -3.67, 1.96, 1.62, 7.36, repro,
2006-05-01,1.98, 0.13, -5.74, 1.96, 1.61, 7.34, repro,
2006-05-02,1.86, -2.74, 2.37, 1.97, 1.61, 7.43, repro,
2006-05-03,1.58, -2.21, 0.93, 1.98, 1.61, 7.43, repro,
2006-05-04,1.56, -0.89, 1.14, 1.96, 1.60, 7.35, repro,
2006-05-05,1.79, -0.80, -5.17, 1.95, 1.61, 7.35, repro,
2006-05-06,2.07, -1.37, -3.29, 1.96, 1.61, 7.35, repro,
2006-05-07,1.03, -0.78, 0.62, 1.96, 1.60, 7.33, repro,
2006-05-08,2.24, -2.02, -3.39, 1.98, 1.61, 7.47, repro,
2006-05-09,1.09, -1.23, 3.63, 2.03, 1.62, 7.54, repro,
2006-05-10,0.65, -0.76, 0.45, 1.95, 1.62, 7.39, repro,
2006-05-11,1.06, -1.19, -0.36, 1.96, 1.62, 7.39, repro,
2006-05-12,0.41, -1.91, -0.96, 1.95, 1.61, 7.30, repro,
2006-05-13,0.34, -0.73, -0.43, 2.05, 1.65, 7.80, repro,
2006-05-14,1.80, -1.23, -0.33, 1.96, 1.61, 7.42, repro,
2006-05-15,1.01, -0.75, -2.64, 1.96, 1.60, 7.38, repro,
2006-05-16,0.81, -0.31, 0.39, 2.00, 1.66, 7.52, repro,
2006-05-17,0.43, -1.06, 7.14, 1.99, 1.66, 7.51, repro,
2006-05-18,-0.57, -0.40, 10.33, 1.97, 1.61, 7.35, repro,
2006-05-19,0.23, -0.19, 7.78, 2.11, 1.66, 7.78, repro,
2006-05-20,0.69, -1.71, 8.60, 2.05, 1.62, 7.59, repro,
2006-05-21,0.18, -1.18, 2.46, 2.10, 1.65, 7.65, repro,
2006-05-22,-0.06, -0.11, 9.26, 2.04, 1.68, 7.60, repro,
2006-05-23,0.58, 0.30, 3.96, 2.03, 1.63, 7.49, repro,
2006-05-24,-1.21, -1.51, 3.87, 2.02, 1.62, 7.49, repro,
2006-05-25,1.19, -0.39, 5.56, 2.16, 1.67, 7.87, repro,
2006-05-26,1.33, -0.68, 5.09, 2.11, 1.64, 7.73, repro,
2006-05-27,-0.94, -1.50, 7.46, 2.03, 1.63, 7.49, repro,
2006-05-28,0.10, 0.34, 8.16, 2.06, 1.67, 7.67, repro,
2006-05-29,0.20, -0.07, 0.32, 2.05, 1.65, 7.61, repro,
2006-05-30,0.98, -0.93, 9.28, 2.07, 1.65, 7.62, repro,
2006-05-31,0.41, -0.97, 1.57, 2.12, 1.68, 7.72, repro,
2006-06-01,0.27, -2.05, -1.72, 2.07, 1.66, 7.64, repro,
2006-06-02,-0.06, -1.30, 1.47, 2.17, 1.72, 7.92, repro,
2006-06-03,-0.78, 0.49, 2.43, 2.11, 1.70, 7.81, repro,
2006-06-04,1.06, -0.31, 1.66, 2.09, 1.66, 7.73, repro,
2006-06-05,1.09, -1.40, 8.21, 2.12, 1.68, 7.74, repro,
2006-06-06,0.30, -0.58, 8.90, 2.10, 1.64, 7.62, repro,
2006-06-07,1.81, -1.33, -1.17, 2.09, 1.65, 7.64, repro,
2006-06-08,-0.60, -0.27, 3.80, 2.04, 1.64, 7.58, repro,
2006-06-09,-1.51, -0.77, 4.61, 2.11, 1.70, 7.80, repro,
2006-06-10,0.71, -0.25, 1.17, 2.12, 1.69, 7.78, repro,
2006-06-11,0.21, -1.42, 6.94, 2.06, 1.64, 7.56, repro,
2006-06-12,0.00, -0.77, 6.55, 2.10, 1.71, 7.74, repro,
2006-06-13,1.66, 0.24, 3.77, 2.08, 1.66, 7.65, repro,
2006-06-14,0.54, -1.01, 5.76, 2.03, 1.64, 7.54, repro,
2006-06-15,0.37, -0.47, 8.93, 2.06, 1.65, 7.65, repro,
2006-06-16,0.44, -1.12, 7.94, 2.06, 1.64, 7.61, repro,
2006-06-17,1.61, -0.42, 6.50, 2.03, 1.61, 7.43, repro,
2006-06-18,0.56, -2.55, 8.89, 2.06, 1.66, 7.72, repro,
2006-06-19,0.73, -0.25, 1.73, 2.06, 1.69, 7.82, repro,
2006-06-20,0.06, 0.37, 6.60, 2.06, 1.66, 7.72, repro,
2006-06-21,0.28, -0.09, 12.35, 2.06, 1.66, 7.71, repro,
2006-06-22,0.16, -1.58, 16.51, 2.06, 1.66, 7.68, repro,
2006-06-23,-0.00, -1.02, 5.31, 2.05, 1.66, 7.68, repro,
2006-06-24,0.83, -1.49, 0.34, 2.07, 1.69, 7.83, repro,
2006-06-25,1.41, -1.29, 2.11, 2.07, 1.69, 7.84, repro,
2006-06-26,0.19, -1.88, 7.21, 2.06, 1.67, 7.78, repro,
2006-06-27,-2.88, -1.71, 16.35, 2.07, 1.67, 7.75, repro,
2006-06-28,1.26, -1.65, 4.52, 2.05, 1.66, 7.70, repro,
2006-06-29,-0.47, -0.96, 9.30, 2.01, 1.70, 7.72, repro,
2006-06-30,0.79, -0.88, 9.75, 2.03, 1.64, 7.68, repro,
2006-07-01,-0.26, -0.96, 13.29, 2.02, 1.62, 7.59, repro,
2006-07-02,-0.76, 0.38, 0.04, 2.05, 1.67, 7.78, repro,
2006-07-03,0.77, -1.05, -0.44, 2.00, 1.62, 7.57, repro,
2006-07-04,-0.23, -1.16, 5.37, 2.09, 1.70, 7.84, repro,
2006-07-05,-0.04, -0.17, 10.94, 2.02, 1.64, 7.64, repro,
2006-07-06,0.46, -0.35, 1.79, 2.02, 1.62, 7.56, repro,
2006-07-07,-0.46, -1.10, -1.34, 2.03, 1.63, 7.70, repro,
2006-07-08,-0.02, -0.73, -1.37, 2.02, 1.63, 7.67, repro,
2006-07-09,0.19, -1.64, -2.27, 2.02, 1.63, 7.66, repro,
2006-07-10,0.51, -0.61, 4.71, 2.02, 1.64, 7.65, repro,
2006-07-11,0.51, -1.07, 10.06, 2.02, 1.63, 7.65, repro,
2006-07-12,-1.39, -0.88, 5.36, 2.03, 1.63, 7.68, repro,
2006-07-13,-1.09, -1.22, 6.83, 2.04, 1.63, 7.71, repro,
2006-07-14,0.23, -0.57, 4.27, 2.02, 1.63, 7.67, repro,
2006-07-15,-0.95, -0.22, 4.91, 2.02, 1.63, 7.66, repro,
2006-07-16,0.26, -1.02, 4.15, 2.02, 1.64, 7.70, repro,
2006-07-17,0.20, -0.47, 6.72, 2.05, 1.67, 7.93, repro,
2006-07-18,-1.70, 0.24, 18.96, 1.97, 1.61, 7.42, repro,
2006-07-19,-0.71, -2.22, 8.35, 1.97, 1.61, 7.41, repro,
2006-07-20,-1.05, -0.25, 1.12, 2.00, 1.67, 7.56, repro,
2006-07-21,0.91, -1.13, 0.34, 1.95, 1.62, 7.39, repro,
2006-07-22,0.87, -1.19, 8.29, 1.95, 1.60, 7.37, repro,
2006-07-23,-1.44, 0.19, 14.88, 1.98, 1.62, 7.44, repro,
2006-07-24,0.55, -0.39, 15.82, 1.99, 1.64, 7.47, repro,
2006-07-25,2.02, -1.93, 11.49, 1.97, 1.61, 7.41, repro,
2006-07-26,0.50, -1.07, 8.19, 2.00, 1.68, 7.56, repro,
2006-07-27,0.81, -0.22, 5.76, 1.95, 1.61, 7.35, repro,
2006-07-28,0.13, -0.40, 6.46, 1.96, 1.61, 7.44, repro,
2006-07-29,-1.48, 0.59, 5.58, 2.05, 1.71, 7.73, repro,
2006-07-30,0.65, -1.41, 14.04, 2.00, 1.66, 7.54, repro,
2006-07-31,-0.47, -1.77, 12.43, 1.95, 1.61, 7.35, repro,
2006-08-01,0.08, -0.62, 9.61, 1.94, 1.61, 7.34, repro,
2006-08-02,-0.29, -1.06, 8.67, 2.02, 1.71, 7.82, repro,
2006-08-03,0.18, -0.79, 8.79, 2.03, 1.71, 7.84, repro,
2006-08-04,0.21, -1.53, 6.54, 2.04, 1.67, 7.73, repro,
2006-08-05,-1.09, -0.72, 9.27, 2.03, 1.71, 7.82, repro,
2006-08-06,-1.19, -1.49, 9.11, 1.99, 1.66, 7.67, repro,
2006-08-07,0.64, -0.11, 9.67, 2.01, 1.66, 7.71, repro,
2006-08-08,1.06, -1.37, 5.13, 2.01, 1.67, 7.57, repro,
2006-08-09,-0.30, 0.24, 5.33, 2.01, 1.66, 7.59, repro,
2006-08-10,1.88, -1.14, 6.15, 2.00, 1.66, 7.53, repro,
2006-08-11,0.19, -0.49, 5.13, 1.97, 1.62, 7.41, repro,
2006-08-12,0.28, -0.34, 5.87, 1.97, 1.63, 7.44, repro,
2006-08-13,-0.23, -1.05, 12.84, 2.01, 1.67, 7.58, repro,
2006-08-14,-0.91, -0.92, 13.19, 2.00, 1.67, 7.54, repro,
2006-08-15,-1.33, 0.37, 14.85, 2.07, 1.68, 7.66, repro,
2006-08-16,0.10, -0.49, 6.25, 2.03, 1.64, 7.56, repro,
2006-08-17,-0.95, -0.02, 10.48, 1.99, 1.67, 7.51, repro,
2006-08-18,-0.09, 0.07, 8.45, 2.04, 1.73, 7.74, repro,
2006-08-19,-0.35, -0.31, 8.26, 1.95, 1.62, 7.37, repro,
2006-08-20,-0.15, -0.32, 7.26, 1.95, 1.61, 7.33, repro,
2006-08-21,-0.02, 0.24, 3.59, 1.96, 1.64, 7.41, repro,
2006-08-22,-0.38, -0.59, 3.28, 1.97, 1.64, 7.45, repro,
2006-08-23,-0.15, 0.22, 12.12, 1.98, 1.65, 7.45, repro,
2006-08-24,-0.94, -0.47, 16.48, 1.98, 1.64, 7.46, repro,
2006-08-25,-1.14, 0.88, 18.69, 2.00, 1.69, 7.70, repro,
2006-08-26,0.26, -0.10, 16.48, 2.02, 1.71, 7.77, repro,
2006-08-27,-0.32, -0.31, 9.71, 2.02, 1.72, 7.81, repro,
2006-08-28,-0.00, -0.87, 4.41, 2.04, 1.73, 7.83, repro,
2006-08-29,0.18, 0.95, 5.74, 2.04, 1.73, 7.87, repro,
2006-08-30,0.48, 1.05, 8.61, 2.17, 1.82, 8.28, repro,
2006-08-31,-0.08, -0.19, 0.05, 2.04, 1.73, 7.86, repro,
2006-09-01,0.56, -0.24, 2.62, 2.07, 1.75, 7.95, repro,
2006-09-02,-1.01, -0.97, 3.34, 2.03, 1.72, 7.80, repro,
2006-09-03,-0.97, 0.59, 5.56, 2.03, 1.74, 7.86, repro,
2006-09-04,0.72, 0.32, 4.38, 2.09, 1.77, 8.07, repro,
2006-09-05,0.47, -0.31, 2.24, 2.09, 1.77, 8.03, repro,
2006-09-06,0.46, -0.55, 6.21, 2.03, 1.73, 7.85, repro,
2006-09-07,-0.46, 0.12, 11.22, 2.06, 1.77, 7.96, repro,
2006-09-08,0.21, -0.34, 9.04, 2.07, 1.79, 8.02, repro,
2006-09-09,1.08, -1.24, 9.82, 2.01, 1.69, 7.62, repro,
2006-09-10,0.92, -0.15, 6.78, 2.00, 1.70, 7.66, repro,
2006-09-11,-0.47, 0.20, 10.05, 2.01, 1.68, 7.59, repro,
2006-09-12,0.17, -1.04, 10.43, 1.99, 1.67, 7.50, repro,
2006-09-13,-0.07, -0.20, 12.78, 2.00, 1.68, 7.57, repro,
2006-09-14,0.77, -0.35, 11.50, 2.11, 1.78, 7.93, repro,
2006-09-15,0.08, -2.26, 17.00, 2.06, 1.67, 7.67, repro,
2006-09-16,0.31, -0.81, 13.64, 1.98, 1.65, 7.49, repro,
2006-09-17,0.03, -0.25, 12.41, 1.97, 1.63, 7.40, repro,
2006-09-18,-0.19, -0.84, 10.32, 1.97, 1.64, 7.45, repro,
2006-09-19,-0.16, -1.58, 11.47, 1.97, 1.63, 7.38, repro,
2006-09-20,-0.26, -0.45, 9.94, 1.98, 1.64, 7.45, repro,
2006-09-21,0.04, -0.58, 12.72, 2.00, 1.69, 7.62, repro,
2006-09-22,0.18, -0.38, 12.59, 2.09, 1.73, 7.80, repro,
2006-09-23,-0.68, -1.14, 6.98, 2.02, 1.68, 7.63, repro,
2006-09-24,0.55, -1.43, 9.60, 2.15, 1.75, 8.17, repro,
2006-09-25,0.95, -0.60, 10.60, 2.12, 1.74, 8.03, repro,
2006-09-26,-0.04, -0.66, 13.78, 2.04, 1.66, 7.56, repro,
2006-09-27,0.74, -0.44, 7.97, 2.10, 1.77, 7.93, repro,
2006-09-28,0.32, -0.82, 7.99, 2.08, 1.72, 7.74, repro,
2006-09-29,-0.43, -1.28, 10.97, 2.06, 1.70, 7.67, repro,
2006-09-30,-0.98, -1.81, 18.21, 2.01, 1.68, 7.62, repro,
2006-10-01,1.00, -0.55, 9.24, 2.00, 1.66, 7.55, repro,
2006-10-02,1.07, -1.78, 14.24, 2.07, 1.74, 7.78, repro,
2006-10-03,0.55, 0.46, 5.24, 2.13, 1.80, 7.96, repro,
2006-10-04,0.57, -0.83, 11.25, 2.03, 1.68, 7.61, repro,
2006-10-05,0.90, -1.59, 8.67, 2.05, 1.68, 7.81, repro,
2006-10-06,0.39, -1.19, 8.92, 2.04, 1.67, 7.78, repro,
2006-10-07,1.17, -0.47, 1.34, 2.07, 1.72, 7.92, repro,
2006-10-08,-0.07, 0.25, 10.23, 2.09, 1.74, 8.05, repro,
2006-10-09,1.02, -1.56, 4.67, 2.18, 1.85, 8.45, repro,
2006-10-10,-1.02, -1.07, 7.94, 2.01, 1.67, 7.61, repro,
2006-10-11,-0.75, -1.20, 12.13, 2.03, 1.74, 7.85, repro,
2006-10-12,0.12, -0.60, 15.73, 2.03, 1.67, 7.65, repro,
2006-10-13,0.85, -0.70, 14.12, 2.00, 1.67, 7.60, repro,
2006-10-14,1.47, -0.70, 8.65, 2.02, 1.77, 7.95, repro,
2006-10-15,0.63, -0.32, 19.40, 2.02, 1.71, 7.75, repro,
2006-10-16,0.40, -0.29, 19.36, 2.00, 1.67, 7.58, repro,
2006-10-17,0.51, -1.90, 15.42, 2.06, 1.73, 7.91, repro,
2006-10-18,0.37, 1.07, 8.66, 1.99, 1.69, 7.65, repro,
2006-10-19,0.12, 0.22, 11.69, 2.17, 1.76, 8.35, repro,
2006-10-20,0.07, -0.96, 12.12, 2.23, 1.91, 9.08, repro,
2006-10-21,-1.01, -1.26, 10.97, 2.13, 1.77, 8.31, repro,
2006-10-22,0.08, -1.59, 7.83, 1.98, 1.72, 7.70, repro,
2006-10-23,0.04, -1.73, 8.44, 2.05, 1.77, 7.95, repro,
2006-10-24,0.43, -0.54, 7.38, 2.06, 1.76, 7.94, repro,
2006-10-25,0.98, -0.14, 10.53, 2.05, 1.77, 7.87, repro,
2006-10-26,0.60, -1.41, 5.44, 1.99, 1.73, 7.67, repro,
2006-10-27,0.92, -0.71, 6.29, 1.94, 1.69, 7.55, repro,
2006-10-28,0.58, -0.77, 5.70, 2.17, 1.81, 8.46, repro,
2006-10-29,-0.91, -0.16, 13.58, 2.00, 1.73, 7.80, repro,
2006-10-30,-0.12, -0.47, 11.66, 1.94, 1.66, 7.51, repro,
2006-10-31,-1.47, -1.21, 10.14, 1.96, 1.68, 7.55, repro,
2006-11-01,0.08, -1.14, 9.68, 2.02, 1.79, 7.91, repro,
2006-11-02,2.51, 0.02, 12.03, 1.96, 1.67, 7.54, repro,
2006-11-03,-0.09, -0.22, 15.43, 2.00, 1.73, 7.76, repro,
2006-11-04,0.40, -0.11, 9.12, 2.03, 1.74, 7.83, repro,
2006-11-05,0.46, -0.64, 4.26, 2.02, 1.72, 7.71, repro,
2006-11-06,-0.53, -1.09, 7.14, 1.92, 1.65, 7.44, repro,
2006-11-07,0.58, 0.53, 5.41, 2.07, 1.79, 8.08, repro,
2006-11-08,0.33, -0.05, 13.69, 2.04, 1.72, 7.86, repro,
2006-11-09,0.78, -0.27, 18.00, 2.09, 1.81, 8.21, repro,
2006-11-10,0.58, 0.45, 3.45, 2.01, 1.69, 7.73, repro,
2006-11-11,-0.22, 0.70, 4.39, 2.03, 1.72, 7.87, repro,
2006-11-12,-0.50, -1.09, 7.44, 2.07, 1.78, 7.98, repro,
2006-11-13,0.42, 0.56, 15.56, 2.05, 1.72, 7.76, repro,
2006-11-14,0.80, -1.15, 8.21, 1.94, 1.63, 7.41, repro,
2006-11-15,0.91, -0.09, 8.01, 1.93, 1.65, 7.39, repro,
2006-11-16,0.75, 0.32, 9.49, 1.92, 1.64, 7.36, repro,
2006-11-17,0.94, 0.34, 5.13, 1.92, 1.63, 7.32, repro,
2006-11-18,0.57, 0.06, 1.76, 1.93, 1.63, 7.31, repro,
2006-11-19,0.21, -1.06, 3.54, 1.93, 1.63, 7.36, repro,
2006-11-20,0.17, 0.41, 5.57, 1.93, 1.64, 7.35, repro,
2006-11-21,-0.07, 0.25, 13.43, 1.93, 1.64, 7.37, repro,
2006-11-22,1.44, -0.57, 8.31, 1.93, 1.64, 7.33, repro,
2006-11-23,0.15, 0.03, 2.67, 1.96, 1.68, 7.56, repro,
2006-11-24,-0.05, -0.68, 8.60, 2.00, 1.70, 7.65, repro,
2006-11-25,0.63, -0.56, 12.26, 1.96, 1.65, 7.44, repro,
2006-11-26,-0.58, -0.00, 9.43, 1.96, 1.65, 7.46, repro,
2006-11-27,-0.11, -0.56, 8.44, 1.96, 1.66, 7.44, repro,
2006-11-28,-0.66, -0.52, 9.57, 1.93, 1.66, 7.38, repro,
2006-11-29,-0.53, -0.06, 4.84, 1.92, 1.64, 7.30, repro,
2006-11-30,0.91, -0.45, 3.55, 1.92, 1.64, 7.35, repro,
2006-12-01,0.51, 0.35, 3.98, 1.92, 1.64, 7.30, repro,
2006-12-02,-0.03, -0.40, 1.94, 1.94, 1.65, 7.38, repro,
2006-12-03,0.74, 0.22, 3.54, 1.94, 1.66, 7.38, repro,
2006-12-04,0.06, -0.51, -1.97, 1.99, 1.68, 7.52, repro,
2006-12-05,0.00, 0.19, 7.70, 1.99, 1.78, 7.62, repro,
2006-12-06,0.93, -0.46, 6.90, 2.00, 1.80, 7.73, repro,
2006-12-07,0.59, -0.48, 5.07, 1.97, 1.72, 7.59, repro,
2006-12-08,0.65, -0.02, 5.89, 1.96, 1.73, 7.58, repro,
2006-12-09,-1.12, -0.47, 6.55, 2.06, 1.85, 7.82, repro,
2006-12-10,-0.92, -0.39, 13.56, 2.00, 1.76, 7.61, repro,
2006-12-11,1.11, -1.51, 6.71, 1.94, 1.69, 7.45, repro,
2006-12-12,0.85, -0.93, 3.74, 2.01, 1.75, 7.63, repro,
2006-12-13,1.66, -0.91, 1.08, 1.96, 1.73, 7.60, repro,
2006-12-14,0.82, -0.75, 4.39, 1.94, 1.68, 7.48, repro,
2006-12-15,-0.07, -0.70, 5.09, 2.01, 1.77, 7.81, repro,
2006-12-16,1.22, -1.65, 10.32, 1.99, 1.74, 7.59, repro,
2006-12-17,0.88, -1.63, 10.83, 2.03, 1.82, 8.02, repro,
2006-12-18,-0.32, -0.19, 7.65, 2.24, 1.95, 8.82, repro,
2006-12-19,0.73, -1.45, 2.04, 2.05, 1.85, 8.01, repro,
2006-12-20,-0.75, -1.22, 1.06, 2.03, 1.83, 7.70, repro,
2006-12-21,-0.40, -0.31, 1.08, 1.93, 1.80, 7.56, repro,
2006-12-22,1.04, -0.32, 7.33, 2.08, 1.90, 8.21, repro,
2006-12-23,0.61, -0.91, 6.15, 2.00, 1.76, 7.84, repro,
2006-12-24,0.05, -0.54, 1.97, 1.94, 1.68, 7.49, repro,
2006-12-25,0.09, -1.00, -3.05, 1.99, 1.79, 7.64, repro,
2006-12-26,0.96, -0.66, 0.93, 1.95, 1.74, 7.58, repro,
2006-12-27,0.98, -0.81, 3.15, 2.01, 1.83, 8.02, repro,
2006-12-28,0.68, -0.84, 5.62, 2.29, 2.17, 9.32, repro,
2006-12-29,1.58, -0.88, 2.09, 2.01, 1.77, 7.78, repro,
2006-12-30,1.44, -0.87, 2.06, 2.00, 1.77, 7.75, repro,
2006-12-31,1.57, -1.22, -2.27, 2.14, 1.92, 8.52, repro,
2007-01-01,1.14, -1.16, 2.64, 2.07, 1.88, 8.13, repro,
2007-01-02,0.90, -0.70, 0.94, 2.12, 1.94, 8.34, repro,
2007-01-03,1.66, -0.26, 10.01, 1.99, 1.81, 7.75, repro,
2007-01-04,1.42, -2.19, 7.66, 1.93, 1.70, 7.55, repro,
2007-01-05,1.77, -3.52, 1.19, 1.91, 1.68, 7.42, repro,
2007-01-06,1.17, -0.74, -1.55, 1.93, 1.75, 7.56, repro,
2007-01-07,1.64, 0.65, -1.72, 1.95, 1.69, 7.44, repro,
2007-01-08,1.05, -1.13, -4.50, 1.99, 1.72, 7.58, repro,
2007-01-09,1.19, -0.97, -2.88, 1.98, 1.69, 7.44, repro,
2007-01-10,0.03, -0.44, 2.63, 2.00, 1.73, 7.55, repro,
2007-01-11,0.21, -0.83, 6.96, 2.01, 1.69, 7.56, repro,
2007-01-12,0.90, -0.98, 0.58, 1.92, 1.64, 7.31, repro,
2007-01-13,1.10, -0.98, -2.74, 1.90, 1.61, 7.13, repro,